Location: Frechholzhausen
(48.4339°N, 10.9924°E)
Time: 22:01:14
(UTC+00:00)

Daily predictions for brighter satellites

Satellite Brightness Start Highest point End
(mag) Time Altitude Azimuth Time Altitude Azimuth Time Altitude Azimuth
Cosmos 2151 Rocket 4.4 17:35:33 10° SSE 17:39:24 29° E 17:43:17 10° NNE
Lacrosse 5 rocket 3.1 17:35:58 10° WNW 17:39:39 27° N 17:43:29 10° NE
Cosmos 1975 Rocket 3.2 17:35:26 10° NNW 17:39:47 81° W 17:44:06 10° S
HJ-1C 4.0 17:41:44 10° SE 17:44:45 35° ENE 17:47:49 10° N
Cosmos 2233 Rocket 4.5 17:39:41 10° SSW 17:45:51 67° W 17:52:01 10° N
COSMO-SKYMED 1 3.0 17:45:12 10° N 17:49:33 69° WNW 17:53:51 10° SSW
Nadezhda 4 Rocket 4.2 17:46:37 10° N 17:52:31 47° ENE 17:58:24 10° SSE
Ariane Rocket 4.0 17:49:05 10° ESE 17:53:20 28° ENE 17:57:37 10° N
Cosmos 1689 Rocket 4.1 17:50:36 10° N 17:53:21 34° WNW 17:56:05 10° SW
H-2A R/B 2.1 17:49:14 10° SSE 17:54:06 55° ENE 17:59:09 10° N
SJ 16-02 4.1 17:52:46 10° WSW 17:55:59 20° NW 17:59:14 10° N
Exosat Rocket 4.3 17:53:37 10° SSE 17:58:15 30° ESE 18:02:35 10° NE
Cosmos 2263 Rocket 3.5 17:53:58 10° SW 17:59:16 43° NW 18:04:38 10° NNE
USA 116 3.7 17:56:10 10° NNE 17:59:47 58° ESE 18:03:51 10° S
COSMOS 2406 4.2 17:56:47 10° NNW 18:01:41 29° NE 18:05:50 13° ESE
Cosmos 1844 Rocket 2.8 17:58:12 10° S 18:03:35 55° ESE 18:09:03 10° NE
Cosmos 1072 Rocket 4.5 17:57:31 10° S 18:03:46 75° E 18:10:10 10° NNE
Cosmos 1707 2.9 18:01:04 10° NNW 18:04:55 74° W 18:08:44 10° S
Cosmos 372 Rocket 4.1 18:00:12 10° SSW 18:05:27 84° WNW 18:10:42 10° NNE
Cosmos 1626 3.7 18:03:47 10° NNE 18:06:18 17° ENE 18:07:28 15° E
NOSS 3-2 (C) 4.1 17:59:31 10° NW 18:06:57 79° NE 18:15:24 10° SE
Cosmos 2278 Rocket 4.0 18:10:00 11° ENE 18:10:00 11° ENE 18:10:45 10° ENE
Cosmos 1844 3.8 18:05:34 10° S 18:11:02 51° ESE 18:16:30 10° NE
Cosmos 2034 Rocket 4.1 18:05:07 10° S 18:11:18 58° E 18:17:29 10° NNE
ISS -3.4 18:08:41 10° W 18:12:02 61° NNW 18:14:49 14° ENE
NOSS 3-4 (A) 4.1 18:07:29 10° S 18:12:33 31° ESE 18:17:53 10° NE
NOSS 3-4 (C) 4.1 18:07:36 10° S 18:12:40 30° ESE 18:17:57 10° NE
Meteor 2-5 Rocket 4.3 18:07:26 10° N 18:12:44 39° ENE 18:18:06 10° SE
USA 186 2.7 18:11:04 16° SE 18:13:08 30° ENE 18:16:05 10° N
Meteor 1-12 Rocket 4.3 18:08:50 10° S 18:14:42 85° E 18:20:31 10° NNE
Lacrosse 4 Rocket 3.4 18:12:26 10° N 18:14:46 15° NE 18:16:33 12° ENE
Meteor 1-24 Rocket 4.5 18:10:18 10° N 18:15:16 32° ENE 18:19:24 14° SE
Cosmos 1300 Rocket 3.6 18:15:34 10° S 18:20:00 85° WNW 18:24:28 10° N
Okean 1 Rocket 3.6 18:19:06 10° SSE 18:23:13 37° E 18:27:23 10° NNE
SL-14 R/B 4.4 18:22:08 10° NNE 18:25:27 25° ENE 18:26:27 22° E
CENTAUR R/B 3.2 18:17:59 10° NW 18:26:02 90° SW 18:34:46 10° SE
Resurs 01 Rocket 3.2 18:25:51 17° ENE 18:26:43 18° ENE 18:29:40 10° NNE
Cosmos 2298 Rocket 4.1 18:21:23 10° SSW 18:26:44 82° WNW 18:32:06 10° NNE
Cosmos 1833 Rocket 3.6 18:22:10 10° NNW 18:27:15 32° NE 18:30:12 20° E
CSL-04 Rocket 4.2 18:26:51 10° S 18:32:14 63° WSW 18:37:45 10° NNW
Cosmos 1766 3.7 18:30:34 10° SSE 18:34:14 39° E 18:37:56 10° NNE
Cosmos 1025 Rocket 3.8 18:30:00 10° NNW 18:34:18 55° W 18:38:35 10° S
Okean 2 Rocket 3.7 18:30:09 10° SSW 18:34:35 60° WNW 18:39:01 10° N
YAOGAN 1 4.3 18:31:01 10° SSW 18:34:59 35° W 18:38:59 10° NNW
ATLAS 2AS CENTAUR R/B 3.3 18:27:35 10° S 18:35:00 46° ESE 18:42:25 10° NE
ATLAS 3B R/B 3.1 18:31:43 10° NW 18:38:20 50° NE 18:42:34 23° ESE
Cosmos 1634 Rocket 4.3 18:33:21 10° SSE 18:39:05 43° E 18:44:54 10° NNE
Abrixas rocket 2.6 18:38:55 10° W 18:41:38 41° SSW 18:42:11 35° SSE
SPOT 3 Rocket 4.3 18:40:10 25° ESE 18:42:10 34° ENE 18:46:48 10° N
ARIANE 5 R/B 4.5 18:42:31 15° NE 18:42:31 15° NE 18:44:47 10° NNE
CREW DRAGON DEMO-1 DEB 3.4 18:40:32 10° WNW 18:43:28 47° SSW 18:44:16 36° SSE
Cosmos 1536 Rocket 4.2 18:39:42 10° NNW 18:44:06 59° W 18:48:29 10° S
Cosmos 1125 Rocket 3.5 18:42:02 10° SSW 18:47:21 87° WNW 18:52:44 10° NNE
Resurs 1-3 4.2 18:48:54 33° E 18:49:56 38° ENE 18:54:00 10° N
SJ-6B 2.6 18:48:31 32° SE 18:50:06 65° ENE 18:53:53 10° N
Cosmos 1892 Rocket 4.1 18:46:52 10° N 18:50:54 36° ENE 18:51:24 34° E
CZ-4 R/B 4.3 18:49:42 10° SW 18:52:47 19° W 18:55:51 10° NW
Cosmos 2195 Rocket 4.4 18:48:10 10° N 18:54:26 75° E 19:00:07 12° SSE
Cosmos 1627 Rocket 4.5 18:49:38 10° N 18:56:02 70° ENE 19:01:24 15° SSE
Cosmos 1674 3.3 18:52:41 10° NNW 18:56:30 57° W 19:00:15 10° S
Cosmos 2026 Rocket 4.0 18:50:56 10° N 18:57:18 68° ENE 19:02:16 17° SSE
Cosmos 1092 Rocket 3.9 18:51:18 10° N 18:57:30 86° E 19:03:44 10° S
Cosmos 2285 Rocket 3.9 18:51:46 10° SSW 18:58:04 88° ESE 19:04:29 10° NNE
MOS 1 Rocket 3.9 18:58:15 10° N 19:02:32 52° WNW 19:06:41 10° SSW
FREGAT/IRIS 3.3 19:04:41 41° NNW 19:04:41 41° NNW 19:06:33 10° NNW
Cosmos 1428 Rocket 4.4 18:59:35 10° N 19:05:52 74° ENE 19:10:06 22° SSE
TSX-5 3.9 19:05:22 10° SSW 19:09:15 77° ESE 19:14:17 10° NNE
ARGOS 4.1 19:05:06 10° S 19:10:15 46° W 19:15:27 10° NNW
CZ-2C R/B 2.6 19:07:14 10° NNE 19:12:50 84° ESE 19:18:27 10° SSW
Cosmos 1340 Rocket 2.9 19:15:11 59° ENE 19:15:11 59° ENE 19:18:42 10° NNE
Cosmos 2279 Rocket 4.1 19:12:59 32° SSE 19:15:35 51° E 19:21:38 10° NNE
Cosmos 1733 3.2 19:13:48 19° SSW 19:16:25 77° W 19:20:16 10° N
MOS 1 4.4 19:13:05 17° S 19:17:32 75° WSW 19:23:16 10° NNW
Lacrosse 5 rocket 2.6 19:15:46 10° NW 19:19:48 33° NNE 19:20:43 31° NE
Cosmos 2082 Rocket 2.6 19:15:01 10° NNW 19:20:25 44° NE 19:21:17 41° ENE
Cosmos 2098 Rocket 4.2 19:14:06 10° N 19:20:32 44° ENE 19:21:19 42° E
DMSP B5D2-2 4.0 19:17:21 10° NNE 19:22:41 88° ESE 19:27:58 10° SSW
BREEZE-M R/B 3.2 19:16:12 10° WSW 19:24:18 84° S 19:24:25 82° ESE
Spot 2 Rocket 4.5 19:25:14 30° NE 19:25:14 30° NE 19:29:09 10° N
OBJECT-B 1.8 19:28:48 44° NNW 19:28:48 44° NNW 19:31:10 10° NNW
Cosmos 2142 Rocket 4.4 19:24:37 19° S 19:29:17 73° E 19:35:28 10° NNE
Ariane Rocket 3.9 19:28:06 15° S 19:32:05 47° W 19:37:00 10° NNW
H-2A R/B 4.3 19:30:03 10° SW 19:33:54 22° W 19:37:52 10° NW
Terra 3.9 19:42:50 15° NE 19:42:50 15° NE 19:44:19 10° NNE
Cosmos 1626 3.3 19:38:15 10° NNW 19:41:44 39° W 19:42:02 38° WSW
Okean 1-7 Rocket 3.6 19:37:35 10° N 19:41:51 76° N 19:41:51 76° N
USA 186 4.5 19:42:35 14° WSW 19:43:54 18° W 19:46:14 10° NW
Cosmos 1455 Rocket 4.2 19:47:18 35° NNE 19:47:18 35° NNE 19:49:54 10° NNE
COSMOS 2406 3.5 19:40:48 10° NW 19:46:23 60° WSW 19:47:55 44° SSW
SPOT 1/Viking Rocket 4.3 19:48:44 39° NE 19:48:44 39° NE 19:52:39 10° N
Cosmos 1844 Rocket 4.5 19:42:54 10° WSW 19:47:48 30° NW 19:52:44 10° NNE
ISS -1.7 19:45:51 10° WNW 19:47:46 29° NW 19:47:46 29° NW
Cosmos 2278 Rocket 2.0 19:45:46 10° SSW 19:51:32 78° E 19:57:05 10° NNE
Lacrosse 4 Rocket 2.3 19:50:02 10° NNW 19:52:52 43° NNW 19:52:52 43° NNW
Cosmos 909 Rocket 3.9 19:52:48 10° NW 19:59:23 78° NE 19:59:55 72° E
Cosmos 2266 Rocket 3.9 19:54:51 10° N 20:00:34 65° ENE 20:00:34 65° ENE
Resurs 01 Rocket 2.2 20:03:26 55° WNW 20:03:26 55° WNW 20:07:12 10° NNW
Meteor 2-19 Rocket 4.4 19:56:39 10° NNW 20:02:46 77° W 20:03:47 62° SSW
NOSS 3-4 (A) 3.8 19:57:06 10° SW 20:02:59 62° NW 20:09:23 10° NE
NOSS 3-4 (C) 3.8 19:57:12 10° SW 20:03:05 63° NW 20:09:29 10° NE
Cosmos 1833 Rocket 3.2 20:05:57 10° NW 20:11:27 52° WSW 20:11:54 50° SW
Cosmos 2251 Rocket 3.8 20:08:58 10° NNW 20:13:44 67° NW 20:13:44 67° NW
ERS-1 Rocket 4.3 20:17:40 32° NNE 20:17:40 32° NNE 20:20:36 10° N
ARIANE 5 R/B 4.0 20:20:05 34° NNW 20:20:05 34° NNW 20:22:37 10° NNW
ATLAS 2AS CENTAUR R/B 3.5 20:18:05 10° WSW 20:25:58 60° NW 20:33:42 10° NE
ATLAS 3B R/B 3.2 20:22:32 10° NW 20:29:07 49° WSW 20:29:50 48° SW
SPOT 5 4.3 20:33:48 36° N 20:33:48 36° N 20:37:04 10° N
Cosmos 1655 Rocket 4.4 20:31:18 10° NNW 20:37:24 55° W 20:37:50 54° WSW
Lacrosse 5 rocket 4.0 20:54:54 10° NW 20:56:20 20° NW 20:56:20 20° NW
Cosmos 2082 Rocket 3.7 20:59:21 10° NW 21:03:08 31° W 21:03:08 31° W
Terra 4.2 21:21:45 20° NNW 21:21:45 20° NNW 21:23:16 10° NNW
Cosmos 2278 Rocket 4.2 21:33:01 15° W 21:36:09 24° NW 21:40:40 10° N
CZ-4C R/B 4.4 22:45:17 24° N 22:45:17 24° N 22:48:46 10° NE
SL-16 R/B 4.2 23:50:37 28° NNE 23:50:37 28° NNE 23:54:07 10° N
